Weather History for KCUT - March, 2013

Change the Weather History Date:

Sunday, March 3, 2013

  Actual Average Record
Temperature  
Mean Temperature 40 °F 29 °F  
Max Temperature 53 °F 39 °F 62 °F (1992)
Min Temperature 26 °F 18 °F -26 °F (1960)
Degree Days  
Heating Degree Days 25 36  
Month to date heating degree days 84 110  
Since 1 July heating degree days 5626 5945  
Cooling Degree Days 0 0  
Month to date cooling degree days 0 0  
Year to date cooling degree days 0 0  
Moisture  
Dew Point 23 °F    
Average Humidity 50    
Maximum Humidity 72    
Minimum Humidity 28    
Precipitation  
Precipitation 0.00 in 0.01 in 1.63 in (1985)
Month to date precipitation 0.00 0.04  
Year to date precipitation 0.93 0.90  
Sea Level Pressure  
Sea Level Pressure 29.61 in    
Wind  
Wind Speed 7 mph (West)    
Max Wind Speed 20 mph    
Max Gust Speed 33 mph    
Visibility 10 miles    
Events      
T = Trace of Precipitation, MM = Missing Value Source: NWS Daily Summary

Daily Weather History Graph

Daily Weather History Graph

Search for Another Location

Airport or City:

Trip Planner

Search our weather history database for the weather conditions in past years. The results will help you decide how hot, cold, wet, or windy it might be!

Date:

Astronomy

Mar. 03, 2013 Rise Set
Actual Time 6:27 AM MST 5:46 PM MST
Civil Twilight 5:58 AM MST 6:14 PM MST
Nautical Twilight 5:25 AM MST 6:48 PM MST
Astronomical Twilight 4:51 AM MST 7:21 PM MST
Moon No Moon Rise 9:31 AM MST (3/3)
Length of Visible Light 12h 16m
Length of Day
11h 18m
Waning Gibbous, 63% of the Moon is Illuminated
Mar 3
Waning Gibbous
Mar 4
Last Quarter
Mar 11
New
Mar 19
First Quarter
Mar 27
Full

Hourly Weather History & Observations

Time (MST) Temp. Windchill Dew Point Humidity Pressure Visibility Wind Dir Wind Speed Gust Speed Precip Events Conditions
12:53 AM 39.9 °F 34.5 °F 24.1 °F 53% 29.84 in 10.0 mi West 8.1 mph - N/A   Partly Cloudy
1:53 AM 39.9 °F 34.5 °F 24.1 °F 53% 29.81 in 10.0 mi West 8.1 mph - N/A   Clear
2:53 AM 41.0 °F 38.0 °F 23.0 °F 49% 29.75 in 10.0 mi NW 4.6 mph - N/A   Clear
3:53 AM 37.0 °F 31.6 °F 24.1 °F 59% 29.75 in 10.0 mi WSW 6.9 mph - N/A   Partly Cloudy
4:53 AM 37.9 °F - 23.0 °F 55% 29.73 in 10.0 mi Calm Calm - N/A   Scattered Clouds
5:53 AM 39.0 °F 36.8 °F 23.0 °F 53% 29.71 in 10.0 mi SW 3.5 mph - N/A   Overcast
6:53 AM 34.0 °F 29.8 °F 23.0 °F 64% 29.73 in 10.0 mi Variable 4.6 mph - N/A   Mostly Cloudy
7:53 AM 37.0 °F 34.5 °F 25.0 °F 62% 29.69 in 10.0 mi NW 3.5 mph - N/A   Mostly Cloudy
8:53 AM 46.0 °F - 24.1 °F 42% 29.65 in 10.0 mi Calm Calm - N/A   Clear
9:53 AM 48.9 °F - 21.9 °F 35% 29.61 in 10.0 mi Calm Calm - N/A   Clear
10:53 AM 50.0 °F - 23.0 °F 35% 29.58 in 10.0 mi Variable 5.8 mph - N/A   Clear
11:53 AM 50.0 °F - 23.0 °F 35% 29.56 in 10.0 mi West 8.1 mph - N/A   Partly Cloudy
12:53 PM 50.0 °F - 21.9 °F 33% 29.55 in 10.0 mi West 10.4 mph 16.1 mph N/A   Partly Cloudy
1:53 PM 52.0 °F - 19.9 °F 28% 29.50 in 10.0 mi West 13.8 mph 25.3 mph N/A   Clear
2:53 PM 51.1 °F - 21.9 °F 32% 29.49 in 10.0 mi West 10.4 mph 17.3 mph N/A   Partly Cloudy
3:53 PM 52.0 °F - 23.0 °F 32% 29.49 in 10.0 mi Variable 6.9 mph - N/A   Mostly Cloudy
4:53 PM 48.9 °F - 23.0 °F 36% 29.49 in 10.0 mi SW 4.6 mph - N/A   Partly Cloudy
5:53 PM 45.0 °F 43.5 °F 23.0 °F 42% 29.50 in 10.0 mi WSW 3.5 mph - N/A   Mostly Cloudy
6:53 PM 44.1 °F 39.5 °F 27.0 °F 51% 29.54 in 10.0 mi WSW 8.1 mph - N/A   Overcast
7:53 PM 39.0 °F 35.7 °F 30.0 °F 70% 29.52 in 10.0 mi SSW 4.6 mph - N/A   Clear
8:53 PM 39.9 °F 30.8 °F 28.9 °F 65% 29.48 in 10.0 mi West 18.4 mph 25.3 mph N/A   Partly Cloudy
9:53 PM 30.0 °F 18.3 °F 23.0 °F 75% 29.54 in 10.0 mi NNW 17.3 mph 28.8 mph N/A   Clear
10:53 PM 28.0 °F 17.5 °F 19.9 °F 72% 29.56 in 10.0 mi NNW 12.7 mph 23.0 mph N/A   Clear
11:53 PM 26.1 °F 19.4 °F 17.1 °F 69% 29.62 in 10.0 mi Variable 5.8 mph - N/A   Clear